This is the latest recevied weather packets stored in our database for station/object OK2PAT-12. If no packets are shown the sender has not sent any weather packets the latest 10 day(s).
| Time | Temp. | Humidity | Pressure | Rain* | Wind** | Luminosity | Snow |
|---|---|---|---|---|---|---|---|
| 1777632642 | 15.56° C | 45% | 1028.7 hPa | - | - | - | - |
| 1777632042 | 15.56° C | 45% | 1028.7 hPa | - | - | - | - |
| 1777631442 | 15° C | 45% | 1028.7 hPa | - | - | - | - |
| 1777630842 | 15° C | 45% | 1028.9 hPa | - | - | - | - |
| 1777630242 | 14.44° C | 46% | 1028.9 hPa | - | - | - | - |
| 1777629642 | 14.44° C | 47% | 1029 hPa | - | - | - | - |
| 1777629042 | 14.44° C | 47% | 1029.2 hPa | - | - | - | - |
| 1777628442 | 15° C | 45% | 1029.3 hPa | - | - | - | - |
| 1777627842 | 15° C | 45% | 1029.3 hPa | - | - | - | - |
| 1777627242 | 15° C | 44% | 1029.4 hPa | - | - | - | - |
| 1777626641 | 15° C | 44% | 1029.5 hPa | - | - | - | - |
| 1777626041 | 15° C | 45% | 1029.4 hPa | - | - | - | - |
| 1777624840 | 14.44° C | 48% | 1029.4 hPa | - | - | - | - |
| 1777624240 | 14.44° C | 49% | 1029.4 hPa | - | - | - | - |
| 1777623640 | 14.44° C | 51% | 1029.4 hPa | - | - | - | - |
| 1777622439 | 13.89° C | 52% | 1029.4 hPa | - | - | - | - |
| 1777621839 | 13.33° C | 52% | 1029.4 hPa | - | - | - | - |
| 1777621237 | 13.33° C | 53% | 1029.4 hPa | - | - | - | - |
| 1777620637 | 13.33° C | 55% | 1034 hPa | - | - | - | - |
| 1777620037 | 13.33° C | 55% | 1029.3 hPa | - | - | - | - |
| 1777619436 | 12.78° C | 55% | 1029.3 hPa | - | - | - | - |
| 1777618836 | 12.22° C | 56% | 1029.2 hPa | - | - | - | - |
| 1777618236 | 12.22° C | 57% | 1029.2 hPa | - | - | - | - |
| 1777617636 | 11.67° C | 57% | 1029.2 hPa | - | - | - | - |
| 1777617037 | 11.67° C | 57% | 1029.2 hPa | - | - | - | - |
* Rain since midnight (hover to see other rain measurements)
** Current wind speed in m/s (hover to see current wind gust speed)